Frontpage

Topic Replies Views Last post
Wall Street by choad
0 1426 2013-06-03 02:56:08 by choad
Google Gl-ass by choad
0 1357 2013-05-29 21:07:54 by choad
Reality Check by choad
0 1369 2013-05-26 09:28:04 by choad
Papal Dirt Naps by choad
0 1374 2013-05-25 13:49:19 by choad
Wherever by choad
0 1401 2013-05-21 00:30:35 by choad
97 Pound Meeklings by choad
0 1382 2013-05-18 20:36:19 by choad
0 1461 2013-05-10 01:44:16 by choad
0 1375 2013-05-07 03:08:38 by choad
My Little Rifle by choad
0 1409 2013-05-05 22:45:05 by choad
Happy Bicycle Day! by choad
0 1471 2013-04-20 15:30:45 by choad
Boston Marathon by choad
0 1434 2013-04-17 16:17:26 by choad
The Witch Is Dead by choad
0 1435 2013-04-10 12:49:55 by choad
Free to Be by square
0 1433 2013-04-07 02:52:36 by square
0 1478 2013-03-20 00:04:44 by choad
0 1556 2013-03-19 01:11:20 by choad
D.I.Y. by square
0 1542 2013-03-16 02:27:58 by square
0 1392 2013-03-11 11:35:58 by choad
0 1533 2013-03-09 04:54:28 by square
0 1429 2013-02-25 05:43:17 by choad
Holy See Again by choad
0 1374 2013-02-13 21:35:23 by choad
Baby Mama by square
0 1382 2013-02-10 13:02:33 by square
Gag Order by square
0 1397 2013-01-03 10:31:48 by square
Soul Food by choad
0 1374 2013-01-01 11:27:12 by choad
2012-12-21, Adios by choad
0 1439 2012-12-20 22:48:30 by choad
0 1431 2012-11-30 18:43:14 by choad
0 1411 2012-11-29 02:47:51 by choad
The End Is Nigh by choad
0 1434 2012-11-29 00:46:03 by choad
0 1500 2012-11-28 18:00:55 by choad
Estimated Prophet by choad
0 1477 2012-09-13 06:21:41 by choad
Interment Cycle by square
0 1549 2012-08-23 00:15:26 by square
Home Alone III by choad
0 1525 2012-08-08 05:28:40 by choad
0 1641 2012-07-25 05:32:02 by choad
Robogeddon by choad
0 1601 2012-07-06 10:28:52 by choad
0 1661 2012-07-05 15:05:04 by Decadence
Wanks For The Memories by Decadence
0 1588 2012-07-03 16:19:52 by Decadence
Persian Haze by Decadence
0 1505 2012-07-03 09:41:37 by Decadence
Whiter Than White by square
0 1499 2012-06-21 05:02:42 by square
0 1605 2012-05-27 07:36:10 by Decadence
0 1539 2012-05-24 17:09:28 by choad
After Birther Bio by choad
0 1526 2012-05-24 17:08:15 by choad
0 1504 2012-05-24 17:06:54 by choad
0 1554 2012-05-22 23:17:31 by Decadence
Cage Does Cage by choad
0 1605 2012-04-29 22:28:15 by choad
Penguin Food by choad
0 1615 2012-04-17 08:48:35 by choad
0 1640 2012-04-05 10:15:14 by choad
Michigan Swinicide by choad
0 1657 2012-03-27 23:10:42 by choad
0 1699 2012-03-26 22:48:34 by choad
Rush To Oblivion by choad
0 1676 2012-03-09 02:57:43 by choad
Bye Bye Breitbart by choad
0 1688 2012-03-01 23:13:47 by choad
Chemical Warfare by square
0 1711 2012-02-27 00:28:15 by square
Posthumous Sodomy by square
0 1874 2012-02-26 22:32:43 by square
0 1919 2012-02-24 16:56:50 by choad
Who's Next? by choad
0 1779 2012-02-18 23:57:09 by choad
0 1662 2012-02-14 16:18:17 by choad
Rate Your Rat by choad
0 1717 2012-02-11 12:37:01 by choad
0 1669 2012-02-06 06:58:25 by choad
Newt In Space by choad
0 1724 2012-01-27 23:20:24 by choad
Unfriended by square
0 1731 2012-01-26 03:14:01 by square
Pity Party by square
0 1690 2011-12-21 04:17:31 by square
Human Migration by choad
0 1636 2011-12-13 13:22:59 by choad

Board footer

high-street.org